Other Surface Observations
Issued by NWS

Home | Current Version | Previous Version | Text Only | Print | Product List | Glossary On
Versions: 1 2 3 4 5 6 7 8 9 10 11 12 13 14 15 16 17 18 19 20 21 22 23 24 25 26 27 28 29 30 31 32 33 34 35 36 37 38 39 40 41 42 43 44 45 46 47 48 49 50
219
SXUS52 KTAE 270518
OSOTAE
OSOTAE
North Florida/South Alabama/Southwest Georgia Weather Roundup
National Weather Service Tallahassee Florida
100 AM EDT TUE SEP 27 2016

Note: "fair" indicates few or no clouds below 12,000 feet with no
significant weather and/or obstructions to visibility.

!FLZ017-115-028-034-025-270600
...North Florida...

CITY           SKY/WX    TMP DP  RH WIND       PRES   REMARKS
TALLAHASSEE    CLEAR     75  73  93 N3        29.97F
APALACHICOLA   CLEAR     72  72 100 CALM      29.97F
PERRY          CLEAR     72  70  93 CALM      29.97F
CROSS CITY     PTCLDY    72  70  94 CALM      29.96F
JACKSONVILLE   PTCLDY    72  72 100 W5        29.95S
$$

!FLZ112-006-005-002-011-270600
...Florida Panhandle...

CITY           SKY/WX    TMP DP  RH WIND       PRES   REMARKS
MARIANNA       CLEAR     72  71  97 CALM      29.97F
BONIFAY        FAIR      70  68  93 CALM      30.00F
PANAMA CITY NW NOT AVBL
TYNDALL AFB    CLEAR     74  71  89 E5        29.97F
TYND DRONE APT FAIR      74  71  92 E5        29.97F
DE FUNIAK SPR  FAIR      69  69  99 CALM      30.00S
EGLIN AFB      PTCLDY    73  69  88 N3        29.98S
DESTIN         PTCLDY    78  71  79 E5        29.98S
HURLBURT       CLEAR     71  69  94 N5        29.97S
CRESTVIEW      CLEAR     70  68  93 CALM      30.01R
PENSACOLA      CLEAR     73  71  93 E5        29.98S
$$

!ALZ063-066-270600
...South Alabama...

CITY           SKY/WX    TMP DP  RH WIND       PRES   REMARKS
DOTHAN         CLEAR     69  69 100 S5        30.02F
OZARK CAIRNS   CLEAR     71  71 100 CALM      29.99F
FT RUCKER HELI CLEAR     72  69  90 CALM      29.98F
RUCKER HELI 3  NOT AVBL
RUCKER HELI 2  NOT AVBL
FLORALA APT    NOT AVBL
ANDALUSIA      MOCLDY    74  70  87 CALM      30.00R FOG
TROY           CLEAR     70  70 100 NW3       30.00F
EUFALA         FAIR      70  67  90 CALM      29.99F
MOBILE         CLEAR     71  70  96 N3        30.00S
$$

!GAZ120>161-270600
...Southwest and South Central Georgia...

CITY           SKY/WX    TMP DP  RH WIND       PRES   REMARKS
THOMASVILLE    FAIR      72  72 100 CALM      29.99S
BAINBRIDGE     CLEAR     72  68  88 CALM      29.99F
MOODY AFB      CLEAR     70  67  90 NE1       29.96F
VALDOSTA       CLEAR     70  69  97 CALM      29.97F
MOULTRIE       CLEAR     72  70  94 CALM      30.00S
BLAKELY        CLEAR     72  68  88 CALM      30.00F
ALBANY         CLEAR     72  69  90 CALM      30.02S
TIFTON         FAIR      72  71  97 CALM      29.99F
FITZGERALD     FAIR      73  73  98 CALM      30.02S
CORDELE        FAIR      73  70  90 CALM      30.01S
AMERICUS       FAIR      70  70 100 CALM      30.03S
HOMERVILLE     FAIR      68  68 100 CALM      29.98F
$$

!GMZ750-755-770-775-270600
...Coastal and Buoy Obs...

STATION/POSITION TIME  TEMP    WIND        PRES    VSBY  WAVE
                       AIR SEA DIR/SP/G                  HT/PER
                 (UTC) (F)     (DEG/KT/KT) (MB)    (MI)  (FT/S)
KEATON BEACH     0500   74      40/  4/  5 1014.1F
CEDAR KEY        0500   77     140/  5/  6 1014.7F
C TOWER          0500   81      CALM  /  1 1015.0F
APALACHICOLA BUO 0450   83 85  190/  2/  4 1014.4F         1
PANAMA CITY BUOY 0450   83 86              1015.1F         1/ 4
MOBILE BUOY      0500   83 86  200/  2/  4 1014.5F
ORANGE BCH AL BU 0450   82 86  140/  4/  6 1014.8F         1
$$




USA.gov is the U.S. government's official web portal to all federal, state and local government web resources and services.